When you browse on this site, cookies collect data to enhance your experience and personalize the content and advertising you see.
Visit our Privacy Policy to learn more. By continuing to use the site, you agree to this use of cookies and data.
  • In Latvia
  • List of Countries
  • For 7 days
  • Water Temperature
  • Weather Map
  • Weather Widgets
  • user-avatar
    Login

    Hourly Weather Klagenfurt

    Today, 3 June, Wednesday

    Time Temperature Precipitation Wind Pressure Humidity
    00:00 +9°C° 0.1 mm 1 mps 687 mmHg 90%
    01:00 +8°C° 0 mm 0 mps 686 mmHg 90%
    02:00 +8°C° 0 mm 0 mps 686 mmHg 91%
    03:00 +8°C° 0 mm 1 mps 685 mmHg 91%
    04:00 +8°C° 0 mm 1 mps 685 mmHg 91%
    05:00 +10°C° 0 mm 1 mps 685 mmHg 89%
    06:00 +11°C° 0 mm 1 mps 685 mmHg 87%
    07:00 +14°C° 0 mm 1 mps 686 mmHg 86%
    08:00 +16°C° 0.1 mm 1 mps 686 mmHg 75%
    09:00 +19°C° 0.1 mm 1 mps 686 mmHg 64%
    10:00 +21°C° 0.1 mm 1 mps 686 mmHg 53%
    11:00 +22°C° 0.3 mm 1 mps 686 mmHg 51%
    12:00 +22°C° 0.3 mm 1 mps 685 mmHg 49%
    13:00 +23°C° 0.3 mm 2 mps 685 mmHg 48%
    14:00 +21°C° 0.4 mm 2 mps 685 mmHg 51%
    15:00 +21°C° 0.4 mm 2 mps 684 mmHg 55%
    16:00 +20°C° 0.4 mm 2 mps 683 mmHg 59%
    17:00 +18°C° 0.4 mm 2 mps 683 mmHg 67%
    18:00 +17°C° 0.4 mm 2 mps 683 mmHg 76%
    19:00 +15°C° 0.4 mm 1 mps 682 mmHg 84%
    20:00 +14°C° 0.1 mm 1 mps 682 mmHg 88%
    21:00 +13°C° 0.1 mm 1 mps 682 mmHg 91%
    22:00 +12°C° 0.1 mm 1 mps 682 mmHg 95%
    23:00 +12°C° 0.2 mm 1 mps 681 mmHg 96%

    Tomorrow, 4 June, Thursday

    Time Temperature Precipitation Wind Pressure Humidity
    00:00 +12°C° 0.2 mm 1 mps 681 mmHg 96%
    01:00 +11°C° 0.2 mm 1 mps 681 mmHg 97%
    02:00 +11°C° 0 mm 1 mps 681 mmHg 97%
    03:00 +11°C° 0 mm 1 mps 680 mmHg 98%
    04:00 +11°C° 0 mm 1 mps 680 mmHg 98%
    05:00 +12°C° 0 mm 1 mps 680 mmHg 96%
    06:00 +13°C° 0 mm 1 mps 680 mmHg 94%
    07:00 +14°C° 0 mm 1 mps 680 mmHg 92%
    08:00 +14°C° 0.2 mm 2 mps 680 mmHg 87%
    09:00 +15°C° 0.2 mm 2 mps 680 mmHg 83%
    10:00 +16°C° 0.2 mm 3 mps 680 mmHg 78%
    11:00 +16°C° 0.3 mm 3 mps 680 mmHg 79%
    12:00 +16°C° 0.3 mm 3 mps 680 mmHg 79%
    13:00 +16°C° 0.3 mm 3 mps 679 mmHg 80%
    14:00 +14°C° 1.3 mm 3 mps 679 mmHg 84%
    15:00 +13°C° 1.3 mm 3 mps 678 mmHg 89%
    16:00 +13°C° 1.3 mm 2 mps 678 mmHg 93%
    17:00 +13°C° 1.2 mm 2 mps 678 mmHg 94%
    18:00 +13°C° 1.2 mm 2 mps 677 mmHg 96%
    19:00 +12°C° 1.2 mm 2 mps 677 mmHg 97%
    20:00 +12°C° 1.7 mm 1 mps 677 mmHg 97%
    21:00 +12°C° 1.7 mm 1 mps 677 mmHg 98%
    22:00 +12°C° 1.7 mm 1 mps 676 mmHg 98%
    23:00 +12°C° 2.4 mm 1 mps 676 mmHg 98%

    Day after tomorrow, 5 June, Friday

    Time Temperature Precipitation Wind Pressure Humidity
    00:00 +12°C° 2.4 mm 1 mps 676 mmHg 98%
    01:00 +13°C° 2.4 mm 2 mps 676 mmHg 99%
    02:00 +13°C° 4.3 mm 2 mps 676 mmHg 99%
    03:00 +13°C° 4.3 mm 2 mps 676 mmHg 99%
    04:00 +13°C° 4.3 mm 2 mps 676 mmHg 99%
    05:00 +13°C° 2.5 mm 1 mps 676 mmHg 98%
    06:00 +13°C° 2.5 mm 1 mps 676 mmHg 98%
    07:00 +13°C° 2.5 mm 1 mps 676 mmHg 97%
    08:00 +12°C° 1.6 mm 1 mps 677 mmHg 97%
    09:00 +12°C° 1.6 mm 1 mps 677 mmHg 97%
    10:00 +12°C° 1.6 mm 1 mps 677 mmHg 97%
    11:00 +12°C° 1.2 mm 1 mps 678 mmHg 96%
    12:00 +12°C° 1.2 mm 1 mps 678 mmHg 95%
    13:00 +12°C° 1.2 mm 1 mps 679 mmHg 94%
    14:00 +12°C° 0.7 mm 1 mps 679 mmHg 92%
    15:00 +12°C° 0.7 mm 1 mps 679 mmHg 91%
    16:00 +12°C° 0.7 mm 1 mps 680 mmHg 90%
    17:00 +12°C° 0 mm 1 mps 680 mmHg 91%
    18:00 +11°C° 0 mm 0 mps 680 mmHg 91%
    19:00 +11°C° 0 mm 0 mps 680 mmHg 92%
    20:00 +10°C° 0 mm 0 mps 681 mmHg 92%
    21:00 +9°C° 0 mm 0 mps 682 mmHg 93%
    22:00 +9°C° 0 mm 0 mps 683 mmHg 93%
    23:00 +8°C° 0 mm 0 mps 683 mmHg 94%

    6 June, Saturday

    Time Temperature Precipitation Wind Pressure Humidity
    00:00 +8°C° 0 mm 0 mps 683 mmHg 95%
    01:00 +8°C° 0 mm 0 mps 683 mmHg 95%
    02:00 +8°C° 0 mm 0 mps 683 mmHg 95%
    03:00 +8°C° 0 mm 0 mps 683 mmHg 95%
    04:00 +8°C° 0 mm 0 mps 684 mmHg 95%
    05:00 +9°C° 0 mm 0 mps 684 mmHg 94%
    06:00 +10°C° 0 mm 0 mps 684 mmHg 93%
    07:00 +11°C° 0 mm 0 mps 685 mmHg 92%
    08:00 +12°C° 0.1 mm 0 mps 685 mmHg 89%
    09:00 +13°C° 0.1 mm 0 mps 685 mmHg 87%
    10:00 +14°C° 0.1 mm 0 mps 685 mmHg 84%
    11:00 +16°C° 0.5 mm 1 mps 685 mmHg 84%
    12:00 +16°C° 0.5 mm 1 mps 685 mmHg 83%
    13:00 +18°C° 0.5 mm 1 mps 685 mmHg 83%
    14:00 +17°C° 0.5 mm 2 mps 685 mmHg 82%
    15:00 +17°C° 0.5 mm 2 mps 685 mmHg 81%
    16:00 +18°C° 0.5 mm 2 mps 685 mmHg 80%
    17:00 +17°C° 0.2 mm 2 mps 685 mmHg 84%
    18:00 +16°C° 0.2 mm 1 mps 684 mmHg 87%
    19:00 +15°C° 0.2 mm 1 mps 684 mmHg 91%
    20:00 +14°C° 0 mm 1 mps 684 mmHg 92%
    21:00 +12°C° 0 mm 1 mps 685 mmHg 94%
    22:00 +11°C° 0 mm 1 mps 685 mmHg 96%
    23:00 +11°C° 0 mm 1 mps 685 mmHg 96%

    7 June, Sunday

    Time Temperature Precipitation Wind Pressure Humidity
    00:00 +11°C° 0 mm 1 mps 684 mmHg 96%
    01:00 +11°C° 0 mm 1 mps 684 mmHg 97%
    02:00 +11°C° 0.1 mm 1 mps 684 mmHg 97%
    03:00 +10°C° 0.1 mm 0 mps 684 mmHg 97%
    04:00 +10°C° 0.1 mm 0 mps 684 mmHg 97%
    05:00 +11°C° 0.1 mm 0 mps 685 mmHg 97%
    06:00 +11°C° 0.1 mm 0 mps 685 mmHg 96%
    07:00 +12°C° 0.1 mm 0 mps 685 mmHg 96%
    08:00 +13°C° 0.2 mm 0 mps 685 mmHg 93%
    09:00 +15°C° 0.2 mm 1 mps 685 mmHg 90%
    10:00 +16°C° 0.2 mm 1 mps 686 mmHg 86%
    11:00 +16°C° 0.8 mm 1 mps 685 mmHg 88%
    12:00 +16°C° 0.8 mm 2 mps 685 mmHg 89%
    13:00 +16°C° 0.8 mm 2 mps 685 mmHg 90%
    14:00 +17°C° 0.4 mm 2 mps 685 mmHg 87%
    15:00 +17°C° 0.4 mm 2 mps 685 mmHg 85%
    16:00 +17°C° 0.4 mm 2 mps 685 mmHg 82%
    17:00 +17°C° 0.1 mm 2 mps 685 mmHg 85%
    18:00 +16°C° 0.1 mm 1 mps 685 mmHg 88%
    19:00 +15°C° 0.1 mm 1 mps 685 mmHg 91%
    20:00 +14°C° 0.5 mm 1 mps 685 mmHg 93%
    21:00 +14°C° 0.5 mm 1 mps 685 mmHg 94%
    22:00 +13°C° 0.5 mm 1 mps 685 mmHg 96%
    23:00 +13°C° 4.2 mm 1 mps 685 mmHg 97%

    8 June, Monday

    Time Temperature Precipitation Wind Pressure Humidity
    00:00 +13°C° 4.2 mm 1 mps 685 mmHg 98%
    01:00 +13°C° 4.2 mm 1 mps 685 mmHg 99%
    02:00 +13°C° 2.2 mm 1 mps 685 mmHg 99%
    03:00 +12°C° 2.2 mm 1 mps 685 mmHg 99%
    04:00 +11°C° 2.2 mm 0 mps 685 mmHg 99%
    05:00 +11°C° 0.7 mm 0 mps 685 mmHg 99%
    06:00 +12°C° 0.7 mm 1 mps 686 mmHg 99%
    07:00 +12°C° 0.7 mm 1 mps 686 mmHg 98%
    08:00 +12°C° 1.5 mm 1 mps 686 mmHg 98%
    09:00 +12°C° 1.5 mm 1 mps 686 mmHg 98%
    10:00 +12°C° 1.5 mm 1 mps 686 mmHg 98%
    11:00 +12°C° 0.7 mm 1 mps 687 mmHg 98%
    12:00 +13°C° 0.7 mm 1 mps 687 mmHg 97%
    13:00 +13°C° 0.7 mm 1 mps 687 mmHg 96%
    14:00 +13°C° 0.3 mm 1 mps 687 mmHg 97%
    15:00 +13°C° 0.3 mm 1 mps 687 mmHg 97%
    16:00 +12°C° 0.3 mm 0 mps 687 mmHg 97%
    17:00 +13°C° 0.8 mm 1 mps 687 mmHg 97%
    18:00 +13°C° 0.8 mm 1 mps 687 mmHg 98%
    19:00 +12°C° 0.8 mm 1 mps 687 mmHg 98%
    20:00 +12°C° 0.5 mm 1 mps 687 mmHg 98%
    21:00 +11°C° 0.5 mm 1 mps 688 mmHg 98%
    22:00 +10°C° 0.5 mm 1 mps 688 mmHg 98%
    23:00 +10°C° 0.4 mm 1 mps 688 mmHg 97%
    Show more